Regional Weather Roundup
Issued by NWS Jackson, KY

Home | Current Version | Previous Version | Graphics & Text | Print | Product List | Glossary On
Versions: 1 2 3 4 5 6 7 8 9 10 11 12 13 14 15 16 17 18 19 20 21 22 23 24 25 26 27 28 29 30 31 32 33 34 35 36 37 38 39 40 41 42 43 44 45 46 47 48 49 50
904
ASUS43 KJKL 211110
RWRJKL

EAST KENTUCKY HOURLY WEATHER ROUNDUP
NATIONAL WEATHER SERVICE JACKSON KY
700 AM EDT SAT OCT 21 2017

NOTE: "FAIR" INDICATES FEW OR NO CLOUDS BELOW 12,000 FEET WITH
NO SIGNIFICANT WEATHER AND/OR OBSTRUCTIONS TO VISIBILITY.

* THESE REPORTS ARE NOT UNDER NWS QUALITY CONTROL AND MAY NOT
  REPORT WEATHER SUCH AS PRECIPITATION AND FOG.

KYZ079-080-083-085-087-088-110-112-115-119-120-211200
...EASTERN KENTUCKY...

CITY           SKY/WX    TMP DP  RH WIND       PRES   REMARKS
JACKSON        CLOUDY    53  49  86 S5        30.25R
LONDON         CLOUDY    46  44  93 CALM      30.25R
SOMERSET*      PTCLDY    43  43 100 CALM      30.26R
MONTICELLO*    CLOUDY    44  43  96 W7        30.26R
WILLIAMSBURG*  CLOUDY    45  45 100 CALM      30.26R
MIDDLESBORO*   FOG       44  44 100 CALM      30.29R VSB 1/4
HARLAN APT*    CLOUDY    46  45  93 CALM      30.29R VSB 1/2
PIKE CO APT*     N/A     50  50 100 S6        30.25S
BIG SANDY APT* SUNNY     53  51  94 CALM      30.25R
MOREHEAD APT*  SUNNY     52  50  93 SE5       30.25R
$$

KYZ035-036-041-042-044-050-067-078-099-211200
...CENTRAL KENTUCKY...

CITY           SKY/WX    TMP DP  RH WIND       PRES   REMARKS
MT STERLING*   PTCLDY    46  46 100 CALM      30.25R
FLEMING/MASON* PTCLDY    50  50  99 CALM      30.24R
DANVILLE*      CLOUDY    54  48  82 S3        30.24R
LEXINGTON      PTCLDY    53  49  86 SE5       30.23R
FRANKFORT      MOCLDY    48  44  86 CALM      30.22R
LOUISVILLE     PTCLDY    54  50  86 SE7       30.20R
LEBANON*         N/A     57  48  72 S6        30.22R
GLASGOW*       CLOUDY    47  47 100 CALM      30.22R
BOWLING GREEN  FOG       47  47 100 CALM      30.21R VSB 3/4
$$

KYZ091>093-OHZ055-061-077-WVZ005-015-034-035-042-211200
...SOUTHERN OHIO/WEST VIRGINIA...

CITY           SKY/WX    TMP DP  RH WIND       PRES   REMARKS
COVINGTON      MOCLDY    54  53  97 S3        30.21R
COLUMBUS       PTCLDY    49  45  86 CALM      30.23S
DAYTON         CLOUDY    53  52  96 S5        30.23R
WILMINGTON     PTCLDY    52  50  93 CALM      30.23R
HUNTINGTON     CLEAR     48  46  93 CALM      30.23R
CHARLESTON     PTCLDY    44  42  93 CALM      30.25S
PINEVILLE*     CLEAR     43  42  95 MISG      30.34S
BECKLEY        CLEAR     55  44  66 SE8       30.31R
BLUEFIELD      CLEAR     55  40  56 S5        30.33R
LOGAN CO APT*    N/A     55  48  76 CALM      30.26S
$$

VAZ002-007-008-TNZ017-027-036-066-071-211200
...SOUTHWEST VIRGINIA/EAST TENNESSEE...

CITY           SKY/WX    TMP DP  RH WIND       PRES   REMARKS
WISE*          CLOUDY    55  43  62 S3        30.32R
JONESVILLE*      N/A     41  41 100 CALM      30.31R
ABINGDON*      CLEAR     52  46  81 E8        30.31R
BRISTOL        PTCLDY    42  42 100 CALM      30.30R
MORRISTOWN*    SUNNY     50  46  87 CALM      30.27R
SEVIERVILLE*   SUNNY     45  43  93 CALM      30.27R
KNOXVILLE      PTCLDY    48  48 100 CALM      30.26R
LAFOLLETTE*    FOG       45  45 100 CALM      30.31R VSB 1/2
OAK RIDGE      FOG       48  48 100 CALM      30.28R VSB 1/2
CROSSVILLE     CLOUDY    50  47  89 CALM      30.27R
NASHVILLE      CLOUDY    52  46  80 S3        30.20R
$$

...KEY TO REMARKS...
VSB - VISIBILITY IN MILES
WCI - WIND CHILL INDEX
HX  - HEAT INDEX

$$




USA.gov is the U.S. government's official web portal to all federal, state and local government web resources and services.